Wind_Speed
9 9 8 8 6 4 3 3 2 3 2 4 3 4 2 1 3 5 3 3 4 6 9 11 10 8 7 6 7 6 5 4 4 6 8 8 10 10 6 8 7 6 5
12 8 7 10 8 6 4 3 2 1 1 3 2 4 4 1 3 6 5 3 3 5 8 11 10 7 7 6 6 6 6 6 5 5 5 5 6 5 4 4 4 4 4
17 11 7 10 9 6 5 5 3 2 1 1 1 1 3 1 3 6 4 3 3 4 7 10 10 8 6 6 7 7 7 7 6 4 4 4 3 3 3 3 3 3 3
21 19 11 11 9 8 7 5 5 4 3 2 1 0 0 2 4 6 4 3 3 3 5 8 9 8 6 6 6 7 7 6 5 3 3 5 3 2 2 2 2 3 3
13 18 19 15 13 12 10 7 5 4 3 2 2 2 1 3 5 7 5 3 2 2 4 6 8 8 6 5 5 5 5 5 3 2 2 5 2 1 1 2 2 3 4
12 15 17 16 16 15 14 12 10 8 6 5 3 3 3 4 6 6 5 5 3 2 2 4 6 6 4 3 2 2 3 2 2 2 1 2 1 2 3 3 3 4 5
12 14 15 17 18 16 15 15 13 11 9 8 6 6 6 5 7 6 6 7 4 2 1 2 4 5 4 2 1 1 2 2 2 2 1 1 2 3 4 5 6 6 6
15 14 15 16 16 16 16 16 14 14 14 14 13 10 9 8 9 8 8 9 5 4 3 1 1 2 2 1 1 2 3 3 3 4 3 3 4 5 6 7 7 7 7
21 18 18 17 17 18 18 18 17 17 16 17 15 13 12 11 12 11 11 11 9 6 6 4 4 2 2 2 2 3 4 5 5 6 5 7 7 8 8 8 9 9 9
26 24 25 25 23 23 24 22 23 21 19 16 14 12 12 13 15 14 13 13 12 9 9 8 7 7 5 4 4 4 5 6 6 7 6 7 7 9 10 11 11 11 11
21 26 28 28 27 24 23 25 26 24 22 22 19 16 13 14 15 16 15 15 16 14 12 11 11 10 9 7 7 6 7 7 7 8 7 9 9 9 10 11 11 12 12
22 23 25 29 30 29 27 25 25 26 25 25 25 23 21 20 18 17 17 17 19 16 16 14 13 13 12 11 10 9 9 10 10 10 8 9 10 10 11 12 12 12 12
23 24 26 28 30 30 28 28 26 26 26 27 27 25 23 24 23 21 19 19 19 18 17 16 15 15 15 15 13 13 12 12 12 11 10 11 11 12 13 13 13 13 13
23 24 27 29 30 32 33 33 31 30 28 29 29 28 26 27 26 24 23 22 19 20 20 20 18 18 17 16 17 15 16 15 15 15 12 12 13 14 14 15 15 15 15
26 26 27 30 33 34 36 35 35 35 33 31 30 27 27 28 29 26 23 25 22 22 22 20 19 18 19 19 19 19 20 20 18 19 18 16 16 16 16 16 16 16 16
26 26 29 31 33 36 38 38 38 38 37 34 32 29 28 28 27 26 22 22 24 25 24 22 19 19 17 18 19 21 21 22 23 22 23 21 19 19 18 18 17 17 16
30 30 29 31 34 37 39 41 41 41 41 41 38 34 33 31 28 26 23 21 22 24 24 22 21 21 20 20 18 22 22 23 25 25 25 27 25 23 21 22 20 18 17
37 34 32 33 34 36 40 41 43 44 45 43 42 37 36 34 32 30 28 25 24 25 25 24 23 22 21 22 22 23 22 23 26 27 27 29 29 26 24 22 24 22 20
39 40 37 36 38 37 38 41 43 46 47 46 47 42 37 36 36 32 31 29 28 26 26 26 25 23 23 23 23 24 25 26 25 28 30 32 30 30 30 26 24 24 22
41 42 42 40 41 41 40 41 43 47 47 48 46 47 40 39 37 36 34 33 30 27 26 26 24 24 23 22 24 27 29 30 29 29 30 33 34 35 36 33 29 27 28
39 40 39 41 39 41 42 42 43 45 44 49 48 47 48 40 40 39 35 34 31 29 27 26 25 24 23 22 27 31 33 33 34 33 33 33 35 37 39 36 37 36 34
40 40 40 40 40 39 43 43 43 44 45 43 50 51 48 46 43 41 38 37 34 32 29 29 29 27 27 28 32 35 40 41 41 38 36 32 32 33 37 39 43 42 37
37 40 39 38 39 38 40 41 42 43 46 44 45 51 51 47 43 40 40 40 37 35 31 30 29 31 35 35 37 40 44 47 45 42 36 35 38 37 35 40 41 38 41
41 41 41 35 37 35 33 38 40 42 42 43 41 42 50 47 45 42 43 43 41 38 34 34 34 37 38 42 40 42 45 46 42 44 43 36 35 33 31 39 45 40 42
47 42 40 31 31 34 32 31 35 38 39 38 39 41 44 44 44 44 45 44 42 41 39 38 39 39 42 43 45 42 40 37 39 43 39 39 34 34 34 40 42 43 43
29 29 29 24 24 27 27 26 27 31 33 33 32 35 40 45 43 44 42 43 43 43 41 40 40 42 41 42 38 38 33 35 31 36 32 37 34 35 37 39 38 39 37
Wind_Direction
189 188 198 197 177 143 101 81 85 81 77 12 31 37 40 148 154 142 129 89 80 55 34 30 36 74 83 91 101 106 106 108 110 120 101 94 105 112 107 100 92 87 78
198 203 206 194 181 169 152 127 98 82 84 80 39 12 21 64 159 151 141 101 78 66 45 36 41 49 76 100 109 116 122 126 128 132 129 125 124 111 111 83 73 66 57
216 211 215 195 186 185 182 163 161 154 91 90 173 265 23 92 158 158 150 128 106 61 49 41 37 55 70 100 116 120 124 127 129 136 143 142 108 107 96 74 54 39 26
229 223 217 199 197 199 206 201 207 198 184 174 203 288 47 138 168 165 169 150 128 79 53 47 43 49 70 95 112 123 126 130 128 130 146 121 107 90 49 29 26 13 5
226 224 222 216 210 210 207 212 225 223 214 223 190 175 155 162 171 174 178 179 151 96 60 49 50 54 62 83 110 123 131 134 129 117 96 88 90 44 3 342 346 348 347
224 221 211 212 218 218 220 222 222 226 231 236 233 206 193 159 162 177 181 189 199 161 80 45 42 55 65 79 103 133 146 156 147 153 118 79 45 349 332 326 324 330 334
217 214 206 214 214 215 220 225 232 233 230 236 236 226 217 197 205 205 204 197 205 209 163 59 25 32 40 68 107 199 208 212 226 245 210 249 314 318 319 319 321 322 324
228 223 218 211 211 220 225 230 239 247 256 255 251 245 230 214 224 228 220 223 226 229 217 228 335 2 8 358 276 253 246 253 259 271 269 275 290 298 304 308 308 308 307
232 233 232 225 223 226 233 238 242 249 252 250 249 240 234 233 234 234 231 226 233 249 257 245 257 265 301 312 292 274 261 261 264 269 278 295 302 303 304 304 303 302 306
233 238 239 240 241 249 247 246 248 248 246 241 236 238 236 235 237 241 240 237 239 243 248 260 269 269 266 268 270 268 270 269 266 270 278 276 287 296 301 303 303 302 304
237 237 241 246 248 246 246 254 251 243 240 243 247 249 242 243 244 241 241 241 241 243 247 255 262 266 268 270 274 276 271 270 273 275 282 286 292 294 293 293 293 296 299
248 243 241 240 247 249 251 249 248 245 243 244 247 248 251 247 244 251 251 245 247 249 254 259 264 269 271 269 268 271 273 277 279 279 285 287 292 294 293 291 290 292 294
258 251 246 245 245 248 249 250 250 246 248 251 250 252 248 252 254 252 251 254 256 251 254 262 264 265 268 267 267 270 270 274 279 283 292 291 293 294 292 290 291 291 291
262 261 257 250 246 246 248 249 250 252 251 250 253 254 257 259 256 256 253 253 255 259 255 256 259 260 264 270 275 273 273 273 278 283 287 290 292 293 294 294 294 293 291
266 261 258 255 252 246 246 248 251 251 250 251 251 251 255 259 264 261 256 258 255 254 260 260 253 252 260 262 269 275 277 278 277 281 285 286 287 289 291 293 293 292 291
271 264 260 257 254 251 249 246 248 250 252 249 249 248 251 258 257 262 262 260 260 255 253 256 254 254 254 266 271 270 275 279 282 282 285 286 287 288 289 288 288 289 291
274 271 266 260 257 254 250 249 245 249 251 252 251 248 251 252 252 252 253 251 260 258 251 252 258 260 263 267 269 273 272 274 276 277 281 286 287 288 290 291 288 284 282
277 271 269 266 260 257 255 250 247 245 248 251 253 248 249 250 247 248 251 249 249 253 252 248 251 257 261 266 267 270 274 274 273 273 274 274 278 283 285 287 288 284 282
278 276 271 265 262 259 256 255 249 247 246 247 251 252 248 246 246 246 250 247 249 244 249 253 249 247 255 264 270 275 276 275 279 273 275 270 269 277 275 274 275 278 280
276 274 272 266 262 258 256 254 253 249 244 245 248 249 250 244 244 245 244 246 249 244 238 242 245 251 255 261 267 272 275 275 274 274 273 271 274 268 271 271 273 272 272
281 278 274 271 264 259 254 252 253 253 248 244 243 248 251 245 246 248 246 245 244 244 243 245 247 250 256 266 275 277 281 278 273 272 267 273 268 270 266 268 267 259 268
285 281 276 270 264 257 251 248 250 252 251 244 242 241 245 250 246 244 242 243 242 240 244 247 252 252 264 273 279 281 279 278 275 276 271 273 271 276 263 267 271 277 265
285 284 279 270 262 259 257 250 251 252 253 247 242 240 238 242 245 242 240 241 241 241 248 247 247 263 272 273 276 276 276 275 278 275 276 273 272 272 263 261 266 270 266
280 281 276 270 257 248 248 254 255 253 251 254 247 242 240 238 241 241 238 239 243 244 250 253 258 267 270 275 274 273 274 275 275 275 276 276 279 274 262 263 266 266 265
281 269 269 271 250 241 237 245 253 254 254 255 251 245 237 239 239 239 239 242 247 247 253 258 262 267 271 275 276 274 269 267 273 270 275 272 273 271 272 270 263 257 260
294 269 257 262 246 240 241 244 245 251 252 252 255 250 244 239 242 239 241 243 247 249 256 260 263 266 272 275 273 265 264 264 266 268 273 273 272 272 266 264 272 275 275
Height
3162 3163 3163 3164 3166 3167 3167 3168 3168 3168 3168 3169 3169 3169 3169 3169 3170 3170 3171 3171 3171 3171 3170 3169 3167 3166 3166 3167 3167 3168 3169 3170 3170 3170 3171 3171 3171 3171 3171 3171 3171 3171 3171
3162 3162 3163 3164 3165 3166 3166 3167 3168 3169 3168 3168 3169 3169 3169 3169 3170 3170 3171 3172 3172 3171 3171 3170 3169 3168 3167 3167 3168 3168 3168 3169 3171 3171 3171 3171 3171 3172 3172 3172 3172 3172 3171
3160 3162 3162 3163 3164 3165 3166 3166 3166 3167 3168 3168 3169 3169 3169 3169 3170 3171 3171 3172 3172 3172 3171 3170 3169 3168 3168 3168 3168 3168 3169 3169 3171 3171 3171 3172 3173 3172 3172 3173 3172 3172 3172
3157 3160 3161 3162 3163 3164 3165 3166 3166 3167 3167 3168 3168 3168 3168 3169 3170 3170 3171 3172 3172 3172 3172 3171 3170 3169 3169 3169 3169 3169 3169 3170 3170 3171 3171 3172 3173 3173 3174 3174 3173 3173 3172
3155 3157 3159 3161 3161 3162 3163 3165 3166 3167 3167 3167 3167 3167 3168 3168 3169 3170 3171 3172 3172 3172 3172 3171 3170 3170 3170 3170 3170 3170 3171 3170 3171 3171 3171 3173 3174 3174 3174 3174 3173 3172 3172
3153 3154 3157 3159 3160 3161 3162 3163 3164 3165 3166 3167 3167 3168 3168 3168 3169 3170 3171 3171 3172 3172 3172 3172 3171 3170 3171 3171 3171 3172 3172 3172 3172 3172 3172 3173 3173 3174 3174 3174 3173 3173 3172
3152 3153 3155 3156 3158 3159 3161 3162 3163 3164 3164 3165 3166 3167 3167 3168 3168 3169 3169 3170 3171 3171 3171 3171 3172 3172 3172 3171 3172 3172 3172 3172 3172 3173 3172 3172 3173 3173 3173 3173 3173 3172 3171
3151 3152 3154 3155 3156 3157 3159 3160 3161 3162 3163 3164 3164 3165 3166 3166 3167 3168 3169 3169 3169 3170 3170 3171 3171 3172 3172 3172 3172 3172 3172 3172 3172 3172 3173 3172 3172 3172 3172 3172 3171 3171 3170
3149 3150 3152 3153 3154 3155 3156 3158 3159 3160 3160 3161 3162 3163 3164 3165 3165 3166 3167 3168 3168 3169 3170 3170 3170 3171 3172 3172 3172 3172 3172 3172 3172 3171 3172 3172 3172 3172 3171 3171 3171 3170 3169
3146 3147 3148 3150 3152 3153 3154 3155 3156 3157 3158 3158 3159 3160 3162 3163 3163 3164 3165 3166 3167 3168 3168 3170 3170 3171 3171 3171 3171 3171 3171 3171 3170 3170 3170 3170 3170 3171 3170 3170 3170 3169 3169
3141 3143 3145 3146 3147 3148 3150 3152 3153 3153 3155 3156 3158 3159 3159 3161 3161 3162 3163 3164 3165 3166 3167 3168 3168 3169 3170 3170 3170 3170 3170 3170 3169 3169 3170 3169 3169 3169 3168 3168 3167 3167 3167
3138 3139 3140 3142 3143 3144 3146 3146 3149 3150 3151 3152 3154 3156 3157 3158 3159 3160 3161 3161 3162 3164 3165 3166 3167 3168 3168 3169 3169 3169 3169 3169 3168 3168 3168 3167 3167 3167 3166 3165 3165 3165 3165
3133 3135 3136 3137 3138 3140 3142 3143 3143 3145 3147 3149 3150 3152 3153 3154 3155 3157 3159 3159 3160 3160 3162 3163 3164 3165 3166 3166 3167 3167 3167 3167 3167 3166 3167 3166 3166 3165 3164 3163 3163 3163 3162
3128 3130 3131 3132 3133 3134 3136 3137 3139 3140 3143 3144 3145 3148 3149 3150 3150 3152 3155 3156 3156 3158 3158 3159 3160 3162 3163 3163 3164 3166 3166 3165 3165 3165 3165 3165 3164 3163 3162 3162 3161 3161 3160
3122 3124 3124 3125 3126 3128 3129 3132 3133 3135 3137 3139 3140 3143 3144 3145 3145 3147 3150 3151 3152 3153 3154 3155 3156 3157 3159 3160 3161 3161 3162 3162 3163 3162 3162 3162 3162 3161 3160 3159 3159 3158 3157
3115 3116 3117 3118 3119 3121 3122 3124 3127 3129 3130 3133 3135 3138 3139 3140 3141 3142 3145 3146 3148 3148 3149 3150 3152 3153 3155 3156 3157 3158 3158 3159 3159 3159 3159 3160 3159 3159 3158 3156 3156 3155 3155
3107 3108 3109 3110 3111 3112 3114 3116 3119 3122 3124 3125 3128 3132 3133 3135 3137 3138 3139 3142 3143 3144 3144 3145 3147 3148 3150 3151 3153 3154 3154 3155 3155 3155 3155 3156 3156 3156 3155 3154 3153 3151 3151
3099 3100 3101 3101 3102 3103 3104 3108 3110 3113 3115 3118 3119 3124 3127 3129 3132 3134 3135 3136 3137 3139 3140 3140 3142 3143 3145 3146 3147 3148 3150 3149 3149 3150 3150 3150 3151 3151 3152 3151 3151 3149 3148
3089 3089 3091 3093 3092 3094 3096 3097 3100 3103 3107 3110 3112 3115 3120 3123 3125 3127 3129 3131 3131 3132 3135 3136 3137 3139 3140 3141 3141 3142 3143 3143 3143 3144 3144 3143 3143 3145 3145 3145 3145 3145 3144
3079 3079 3079 3082 3083 3084 3085 3087 3089 3091 3097 3101 3103 3106 3111 3114 3117 3120 3122 3125 3126 3128 3130 3131 3132 3132 3134 3136 3136 3136 3136 3136 3137 3137 3137 3137 3138 3138 3139 3139 3138 3139 3139
3070 3069 3069 3070 3072 3073 3075 3077 3079 3080 3086 3090 3095 3099 3101 3107 3110 3112 3116 3118 3120 3122 3124 3126 3127 3128 3129 3130 3129 3129 3128 3128 3128 3129 3130 3131 3131 3131 3131 3132 3132 3131 3132
3060 3059 3059 3059 3060 3062 3063 3066 3069 3071 3073 3080 3084 3089 3094 3097 3102 3105 3109 3112 3114 3116 3118 3120 3121 3122 3123 3124 3122 3122 3119 3119 3118 3121 3122 3123 3124 3123 3122 3123 3123 3125 3125
3051 3048 3047 3048 3049 3052 3054 3057 3059 3061 3061 3067 3073 3077 3083 3088 3091 3097 3100 3104 3107 3109 3112 3114 3115 3116 3116 3117 3117 3115 3112 3109 3111 3111 3111 3114 3114 3114 3113 3115 3116 3116 3117
3042 3038 3035 3036 3038 3040 3044 3048 3050 3052 3054 3057 3063 3068 3073 3079 3083 3088 3092 3096 3099 3102 3104 3107 3108 3109 3108 3107 3109 3108 3105 3103 3101 3102 3103 3103 3105 3105 3106 3107 3106 3107 3108
3027 3026 3025 3025 3027 3031 3033 3038 3041 3044 3047 3050 3054 3059 3064 3069 3073 3079 3084 3088 3091 3094 3097 3099 3100 3101 3100 3099 3097 3096 3097 3095 3095 3092 3092 3095 3096 3097 3097 3098 3096 3096 3099
3014 3013 3015 3018 3021 3025 3028 3029 3033 3036 3039 3042 3046 3052 3056 3060 3065 3070 3075 3080 3084 3086 3088 3090 3091 3092 3092 3090 3088 3088 3088 3089 3089 3088 3087 3086 3086 3089 3088 3087 3089 3089 3091